Weather History for PANT - January, 2013

Change the Weather History Date:

Monday, January 7, 2013

  Actual Average Record
Temperature  
Mean Temperature 38 °F 37 °F  
Max Temperature 43 °F 41 °F 55 °F (2001)
Min Temperature 32 °F 32 °F 6 °F (1953)
Degree Days  
Heating Degree Days 27 28  
Month to date heating degree days 164 196  
Since 1 July heating degree days 3207 3107  
Cooling Degree Days 0    
Month to date cooling degree days 0  
Year to date cooling degree days 0  
Moisture  
Dew Point 36 °F    
Average Humidity 0    
Maximum Humidity 0    
Minimum Humidity 0    
Precipitation  
Precipitation 0.06 in 0.34 in 1.75 in (2000)
Month to date precipitation 3.35 2.48  
Year to date precipitation 3.35 2.48  
Snow  
Snow 0.00 in 0.30 in 9.80 in (1965)
Month to date snowfall 0.0 1.8  
Since 1 July snowfall 11.4 13.5  
Snow Depth 0.00 in    
Sea Level Pressure  
Sea Level Pressure 29.62 in    
Wind  
Wind Speed 4 mph (SSW)    
Max Wind Speed 21 mph    
Max Gust Speed 29 mph    
Visibility 9 miles    
Events Rain    
T = Trace of Precipitation, MM = Missing Value Source: NWS Daily Summary

Daily Weather History Graph

Daily Weather History Graph

Search for Another Location

Airport or City:

Trip Planner

Search our weather history database for the weather conditions in past years. The results will help you decide how hot, cold, wet, or windy it might be!

Date:

Astronomy

Jan. 07, 2013 Rise Set
Actual Time 8:08 AM AKST 3:37 PM AKST
Civil Twilight 7:24 AM AKST 4:21 PM AKST
Nautical Twilight 6:37 AM AKST 5:08 PM AKST
Astronomical Twilight 5:53 AM AKST 5:52 PM AKST
Moon 3:29 AM AKST (1/7) 12:02 PM AKST (1/7)
Length of Visible Light 8h 57m
Length of Day
7h 28m
Waning Crescent, 21% of the Moon is Illuminated
Jan 7
Waning Crescent
Jan 11
New
Jan 18
First Quarter
Jan 26
Full
Feb 3
Last Quarter

Hourly Weather History & Observations

Time (AKST) Temp. Windchill Dew Point Humidity Pressure Visibility Wind Dir Wind Speed Gust Speed Precip Events Conditions
12:53 AM 39.9 °F 31.8 °F 37.0 °F 89% 29.47 in 4.0 mi ESE 15.0 mph 20.7 mph 0.00 in Rain Light Rain
1:21 AM 39.2 °F 31.2 °F 37.4 °F 93% 29.45 in 5.0 mi ESE 13.8 mph 21.9 mph 0.00 in Rain Light Rain
1:35 AM 39.2 °F 32.0 °F 37.4 °F 93% 29.45 in 3.0 mi ESE 11.5 mph 24.2 mph 0.01 in Rain Light Rain
1:53 AM 39.9 °F 32.1 °F 37.9 °F 93% 29.46 in 5.0 mi ESE 13.8 mph - 0.01 in Rain Light Rain
3:27 AM 39.2 °F 33.6 °F 37.4 °F 93% 29.43 in 10.0 mi SE 8.1 mph 25.3 mph 0.00 in   Overcast
3:53 AM 41.0 °F 35.8 °F 39.0 °F 93% 29.42 in 10.0 mi ESE 8.1 mph - 0.00 in   Overcast
4:49 AM 41.0 °F 37.1 °F 39.2 °F 93% 29.43 in 10.0 mi SE 5.8 mph - N/A   Overcast
4:53 AM 41.0 °F 35.8 °F 39.9 °F 96% 29.44 in 10.0 mi SE 8.1 mph - N/A   Overcast
5:53 AM 42.1 °F - 39.9 °F 92% 29.44 in 7.0 mi Calm Calm - 0.00 in   Overcast
6:00 AM 42.8 °F - 39.2 °F 87% 29.43 in 7.0 mi Calm Calm - N/A   Overcast
6:15 AM 42.8 °F 39.3 °F 39.2 °F 87% 29.44 in 10.0 mi SW 5.8 mph - N/A   Overcast
6:44 AM 42.8 °F 39.3 °F 39.2 °F 87% 29.45 in 10.0 mi WSW 5.8 mph - 0.01 in   Overcast
6:53 AM 42.1 °F 38.4 °F 39.9 °F 92% 29.46 in 10.0 mi WSW 5.8 mph - 0.01 in   Overcast
7:53 AM 41.0 °F 35.8 °F 36.0 °F 82% 29.49 in 10.0 mi WSW 8.1 mph - N/A   Mostly Cloudy
8:53 AM 39.9 °F - 36.0 °F 86% 29.52 in 10.0 mi Calm Calm - N/A   Partly Cloudy
9:53 AM 41.0 °F 39.0 °F 36.0 °F 82% 29.55 in 10.0 mi West 3.5 mph - N/A   Mostly Cloudy
10:53 AM 41.0 °F - 37.9 °F 89% 29.58 in 10.0 mi Calm Calm - N/A   Overcast
11:53 AM 42.1 °F 40.2 °F 37.9 °F 85% 29.59 in 10.0 mi SE 3.5 mph - N/A   Overcast
12:21 PM 42.8 °F - 37.4 °F 81% 29.58 in 10.0 mi Calm Calm - 0.00 in   Overcast
12:53 PM 41.0 °F - 37.0 °F 86% 29.60 in 10.0 mi Calm Calm - 0.00 in   Overcast
1:53 PM 41.0 °F - 37.9 °F 89% 29.64 in 10.0 mi Calm Calm - 0.00 in Rain Light Rain
2:04 PM 41.0 °F 38.0 °F 37.4 °F 87% 29.64 in 9.0 mi West 4.6 mph - 0.00 in Rain Light Rain
2:22 PM 39.2 °F 33.6 °F 37.4 °F 93% 29.65 in 10.0 mi West 8.1 mph - 0.00 in Rain Light Rain
2:53 PM 39.0 °F 34.0 °F 36.0 °F 89% 29.69 in 10.0 mi West 6.9 mph - 0.01 in Rain Light Rain
3:09 PM 39.2 °F 33.0 °F 35.6 °F 87% 29.70 in 10.0 mi WNW 9.2 mph - 0.00 in Rain Light Rain
3:17 PM 39.2 °F 35.9 °F 35.6 °F 87% 29.70 in 10.0 mi WNW 4.6 mph - 0.00 in Rain Light Rain
3:53 PM 37.9 °F 35.5 °F 35.1 °F 89% 29.73 in 10.0 mi West 3.5 mph - 0.00 in   Mostly Cloudy
4:53 PM 36.0 °F - 34.0 °F 93% 29.75 in 10.0 mi Calm Calm - N/A   Clear
5:53 PM 37.0 °F 33.3 °F 33.1 °F 86% 29.76 in 10.0 mi SSW 4.6 mph - N/A   Partly Cloudy
6:51 PM 37.4 °F 32.1 °F 33.8 °F 87% 29.79 in 10.0 mi WSW 6.9 mph - 0.01 in Rain Light Rain
6:53 PM 37.0 °F 32.4 °F 34.0 °F 89% 29.80 in 10.0 mi Variable 5.8 mph - 0.01 in Rain Light Rain
7:09 PM 35.6 °F - 33.8 °F 93% 29.79 in 10.0 mi Calm Calm - 0.00 in   Scattered Clouds
7:53 PM 34.0 °F 31.0 °F 33.1 °F 96% 29.81 in 10.0 mi ENE 3.5 mph - 0.00 in   Mostly Cloudy
8:53 PM 37.0 °F 34.5 °F 34.0 °F 89% 29.81 in 10.0 mi ESE 3.5 mph - 0.00 in Rain Light Rain
9:21 PM 35.6 °F 32.8 °F 35.6 °F 100% 29.81 in 10.0 mi Variable 3.5 mph - 0.01 in Rain Light Rain
9:44 PM 35.6 °F 32.8 °F 33.8 °F 93% 29.82 in 10.0 mi NNW 3.5 mph - 0.01 in   Overcast
9:53 PM 36.0 °F - 34.0 °F 93% 29.82 in 10.0 mi Calm Calm - 0.01 in   Overcast
10:53 PM 33.1 °F 30.0 °F 32.0 °F 96% 29.83 in 10.0 mi ENE 3.5 mph - N/A   Clear
11:53 PM 37.9 °F - 33.1 °F 83% 29.84 in 10.0 mi Calm Calm - N/A   Overcast